Regional Weather Roundup
Issued by NWS Bismarck, ND

Home | Current Version | Previous Version | Text Only | Print | Product List | Glossary On
Versions: 1 2 3 4 5 6 7 8 9 10 11 12 13 14 15 16 17 18 19 20 21 22 23 24 25 26 27 28 29 30 31 32 33 34 35 36 37 38 39 40 41 42 43 44 45 46 47 48 49 50
000
ASUS43 KBIS 091610
RWRBIS

NWR BROADCAST TEXT
NATIONAL WEATHER SERVICE BISMARCK ND
1000 AM CST FRI DEC 09 2016

NOTE: "FAIR" INDICATES FEW OR NO CLOUDS BELOW 12,000 FEET WITH NO
SIGNIFICANT WEATHER AND/OR OBSTRUCTIONS TO VISIBILITY.


CITY           SKY/WX    TMP DP  RH WIND       PRES   REMARKS
WILLISTON      CLOUDY   -11 -14  86 CALM      30.58R
MINOT          CLOUDY    -9 -14  78 W13       30.55S WCI -29
MINOT AFB      CLOUDY   -14 -20  77 NW13      30.56R WCI -36
BISMARCK       CLOUDY   -13 -18  78 CALM      30.57S
DICKINSON      CLOUDY   -18 -19  96 W3        30.45R FOG
GARRISON         N/A    -12 -16  82 N3        30.53S
HETTINGER ARPT CLOUDY    -8 -11  86 CALM      30.45R FOG
JAMESTOWN      SUNNY     -7 -11  83 NW9       30.55S WCI -24
CARRINGTON     FAIR     -11 -15  84 W14       30.57S WCI -33
HAZEN          LGT SNOW  -8 -13  77 SW5       30.57S WCI -19
RUGBY            N/A    -18 -22  83 W7        30.56R WCI -35
STANLEY        FAIR     -15 -18  84 NW5       30.52S WCI -27
TIOGA          FAIR     -13 -17  84 NW9       30.52S FOG     WCI -31
WATFORD CITY   FAIR     -18 -24  76 SW3       30.55R
$$

CITY           SKY/WX    TMP DP  RH WIND       PRES   REMARKS
GRAND FORKS    CLOUDY     5  -2  72 NW10      30.58R WCI -10
GRAND FORKS AF CLOUDY     2  -5  71 NW9       30.59R WCI -12
DEVILS LAKE    PTSUNNY   -9 -13  83 W7        30.56R WCI -24
FARGO          CLOUDY     6  -1  73 NW8       30.59R WCI  -7
CANDO          FAIR      -9 -13  84 NW9       30.58R WCI -27
CAVALIER         N/A     -2  -8  78 NW8       30.59R WCI -17
GRAFTON        CLOUDY     3  -2  78 NW9       30.61R WCI -11
GWINNER        FAIR       1  -4  78 W7        30.58R WCI -11
LANGDON        FAIR      -9 -15  77 W9        30.51R WCI -27
ROLLA          FAIR     -11 -17  77 NW10      30.51R WCI -30
WALHALLA         N/A     -4  -4 100 W7        30.59R WCI -18
$$

CITY           SKY/WX    TMP DP  RH WIND       PRES   REMARKS
ABERDEEN       PTSUNNY    1  -8  66 MISG      30.60R
MOBRIDGE       CLOUDY    -1  -8  72 NW7       30.51F WCI -14
BUFFALO          N/A     -2  -7  79 E6        30.30R WCI -14
RAPID CITY     FLURRIES   0  -5  79 N12       30.33S WCI -17
GLASGOW        CLOUDY    -5  -9  83 E12       30.51S WCI -23
SIDNEY         CLOUDY   -13 -17  82 CALM      30.59R FOG
WOLF POINT     CLOUDY    -4 -10  75 E3        30.59R
GLENDIVE       CLOUDY   -11 -15  82 N3        30.51R
MILES CITY     CLOUDY    -4  -9  79 NE12      30.44R WCI -22
BAKER          CLOUDY    -8 -12  83 E8        30.42R WCI -24
$$

CITY           SKY/WX    TMP DP  RH WIND       PRES   REMARKS
BILLINGS       LGT SNOW   1  -4  79 N6        30.29R VSB 1   WCI -10
GREAT FALLS    LGT SNOW  -2  -7  79 NE5       30.28S WCI -12
REGINA         CLEAR    -15 -20  76 NW2       30.57R
ESTEVAN        PTCLDY   -22 -27  76 W7        30.56R WCI -39
$$




USA.gov is the U.S. government's official web portal to all federal, state and local government web resources and services.